FENGYUN 1C DEB, 30737

Orbit data source: Space-Track

FENGYUN 1C DEB, 30737 is space debris in SSO originally from a launch on Mon, 10 May 1999 UTC launched from the Taiyaun Space Center, China (TSC). Fengyun 1C debris stems from the Chinese weather satellite Fengyun-1C, which was intentionally destroyed by a Chinese anti-satellite missile in 2007. This event dramatically increased the amount of space debris, with thousands of trackable fragments posing hazards to satellites and human spaceflight. The Fengyun 1C debris cloud has become a focal point in discussions about space sustainability and the need for international regulations to prevent the creation of new debris.

Loading next visibility...
Identifier
30737, 1999-025ASX
Orbit
SSO
Country
Flag of CNCN / PRC
Related business
Manufacturer
Unknown
Mission
Spacecraft
Bus & Motor
Unknown
Mass
Unknown
Launch date (UTC)
1999-05-10 (27 years ago)
Launch vehicle
Unknown
Launch site
Taiyaun Space Center, China (TSC)
Object type
Payload
Rocket body
Debris
Shape & HBR
Unknown shape, 0.1 m
Radar Cross Section
Medium (>0.1 m² and <1 m²)

Expand to show TLE details & history
Last TLE update: 2 days ago

TLE from 2 days ago
0 FENGYUN 1C DEB
1 30737U 99025ASX 26206.43723610  .00000427  00000-0  22624-3 0  9999
2 30737  98.6002 186.6863 0022622 202.5391 311.0176 14.18536719  2142
Epoch: 2026-07-25T10:29Z
TLE epoch observation values (Epoch: 2026-07-25T10:29:37.199Z)
Latitude
26.35233°
Longitude
-89.59446°
Altitude
822.826 km
Speed
7.45 km/s
True Right ascension
00h 43m 50s
True Declination
26° 13' 01"
Sunlit
Object was in daylight at epoch
Visualization orbit readout
Latitude
Unknown
Longitude
Unknown
Altitude
Unknown
Speed
Unknown
Apparent Right ascension
Unknown
Apparent Declination
Unknown
Sunlit
N/A
Visualization observer readout
Local Sidereal Time
23:34:49
Azimuth
Unknown
Elevation
Unknown
Doppler factor
Unknown
Orbital elements
Apogee altitude
843.762 km
Perigee altitude
811.161 km
Semi-major axis
7,205.598 km
Eccentricity
0.00226
Inclination
98.6002°
RAAN
186.6863°
Arg. of periapsis
202.5391°
True anomaly
310.82165°
Mean anomaly
311.0176°
Eccentric anomaly
310.91966°
Mean motion
3.54845 °/min
Orbital period
101.45 mins
BSTAR
0.00022624
Loading maneuver chart data...
Computing Atmospheric mass density...
Loading historical data...
Loading historical data...
Loading historical data...
Loading historical data...
Loading historical data...
Loading historical data...
Loading historical data...

Documentation

Showing up to 5 results
|